Location: Newark
(23.3970°S, 47.6010°W)
Time: 13:09:26
(UTC+00:00)

SR - Visible Passes

Search period start: 17 February 2020 00:00
Search period end: 27 February 2020 00:00
Orbit: 575 x 881 km, 66.7° (Epoch: 17 February)

Date Brightness Start Highest point End Pass type
(mag) Time Alt. Az. Time Alt. Az. Time Alt. Az.
17 Feb ? 06:07:00 13° ESE 06:07:00 13° ESE 06:07:45 10° ESE visible
17 Feb ? 07:46:27 24° WSW 07:46:45 24° WSW 07:50:13 10° S visible
18 Feb ? 06:58:38 36° S 06:58:38 36° S 07:01:17 10° SSE visible
19 Feb ? 06:10:45 14° SE 06:10:45 14° SE 06:11:30 10° SE visible
20 Feb ? 07:02:14 16° SSW 07:02:14 16° SSW 07:03:19 10° S visible
21 Feb ? 06:14:13 10° SSE 06:14:13 10° SSE 06:14:18 10° SSE visible
